Theta_e
306 310 309 305 303 304 308 313 315 315 315 317 317 318 318 316 317 316 316 314 316 315 315 318 319 320 320 320 318 340 342 344 343 343 342 341 340 339 337 336 333 331 333 334
301 307 310 308 305 304 305 306 308 310 313 317 319 322 320 318 317 317 316 315 315 317 319 319 320 320 320 320 320 338 342 343 343 342 341 340 340 338 337 336 334 332 332 332
304 302 310 310 306 304 304 305 307 309 311 317 320 323 321 321 318 317 316 315 316 315 316 317 317 318 320 321 319 335 343 343 342 341 341 340 340 339 335 334 334 333 332 332
304 303 305 309 309 305 303 305 307 309 311 323 320 319 314 318 319 316 316 314 315 319 320 320 321 321 322 322 323 333 343 343 342 341 341 340 338 336 335 334 333 333 333 332
311 304 304 308 310 306 304 305 307 313 319 319 320 315 312 313 315 316 316 321 320 322 323 323 322 323 323 324 325 327 328 342 341 341 340 339 337 336 334 334 333 331 331 332
309 305 304 308 311 311 306 308 316 316 317 318 315 312 313 312 315 325 325 325 325 322 320 319 317 317 317 316 317 320 324 327 340 340 339 337 336 335 333 332 332 331 331 330
307 306 304 310 311 312 308 314 316 317 316 316 314 314 313 318 325 326 326 324 321 319 316 314 313 312 311 310 313 315 318 321 325 339 337 336 335 336 333 332 331 330 331 330
306 304 308 312 312 313 310 312 315 319 321 317 314 316 313 316 325 325 322 320 317 315 313 311 310 307 306 306 308 310 311 315 322 336 337 336 334 335 334 332 331 330 329 330
310 306 313 313 314 311 310 312 314 320 321 323 315 324 323 324 326 325 321 317 314 313 311 308 306 304 303 303 305 306 309 313 324 327 337 335 335 336 334 333 332 331 330 329
313 312 315 314 316 316 310 311 316 321 324 327 322 327 329 321 326 321 316 313 312 310 308 305 303 302 301 302 303 304 308 313 330 327 337 336 336 337 335 334 332 331 330 328
314 311 318 318 318 315 318 318 319 321 323 326 329 329 320 316 319 316 313 309 306 305 304 303 302 300 299 300 301 302 304 309 326 331 336 336 336 336 334 334 332 330 329 327
313 313 320 319 317 317 317 319 318 323 324 322 325 320 316 312 311 310 309 306 304 302 301 300 300 299 299 299 299 299 301 304 311 328 332 335 335 334 333 333 331 330 328 327
314 317 319 317 317 317 318 317 319 320 320 324 325 320 311 309 306 305 304 303 302 300 300 299 298 297 298 298 298 298 298 300 305 322 328 330 332 333 332 331 329 328 326 325
315 316 318 320 320 318 320 319 318 320 321 322 321 316 310 307 305 303 302 300 299 299 298 297 296 296 296 297 297 296 297 297 300 306 316 322 328 330 330 329 326 325 324 323
312 316 314 315 316 317 316 316 316 318 318 320 315 312 308 305 303 301 299 298 298 298 297 296 295 295 295 296 296 296 295 296 297 299 302 304 316 327 328 327 326 324 323 322
311 316 312 315 314 316 316 314 314 315 318 318 314 310 305 301 298 297 297 296 296 296 295 295 294 293 293 294 295 295 295 294 295 296 297 298 302 308 319 324 323 322 322 322
311 311 313 314 312 315 317 313 311 311 311 311 312 311 304 299 297 295 295 295 295 296 295 293 292 292 292 292 293 293 293 294 293 294 295 296 297 297 296 306 319 321 321 322
310 312 311 310 310 318 310 308 307 307 307 307 308 305 300 297 295 294 293 293 293 294 295 293 291 291 291 291 291 292 292 292 292 292 293 293 294 294 294 294 294 300 304 307
310 311 312 312 316 315 309 305 305 309 306 304 304 303 301 299 300 294 292 292 292 293 294 292 291 290 290 290 291 290 290 290 290 290 291 292 292 292 292 292 291 291 293 291
310 310 313 312 314 314 305 301 302 306 305 303 302 300 299 303 301 295 292 292 292 292 293 291 290 289 289 289 290 290 289 288 288 288 288 290 292 292 291 291 292 292 290 290
308 308 309 312 313 307 300 301 303 308 304 303 301 299 297 296 294 293 292 291 291 291 292 291 288 287 287 287 288 290 289 288 286 286 287 288 290 291 291 291 293 292 291 291
308 310 306 307 308 306 299 301 303 303 300 300 300 299 297 295 294 293 292 291 290 289 290 289 288 286 286 285 286 287 288 289 287 285 285 285 286 286 288 289 289 290 290 289
307 307 304 303 302 300 298 299 298 297 298 297 297 297 296 296 294 293 291 289 288 288 288 288 286 285 284 284 284 285 286 289 289 286 284 283 283 284 284 284 285 286 286 287
307 306 303 303 300 299 298 296 296 296 297 295 293 293 295 294 292 290 289 287 287 286 286 285 284 283 283 282 283 283 284 286 287 287 284 283 282 281 281 282 282 283 283 283
304 302 303 301 299 297 296 296 295 294 294 293 292 290 291 290 289 288 287 286 285 285 284 283 282 282 281 280 281 282 283 284 285 286 286 284 282 280 280 280 280 281 282 282
299 300 302 300 300 297 295 294 294 293 292 290 290 289 288 288 287 286 285 284 284 283 282 281 281 280 279 278 279 280 282 283 283 284 284 284 285 282 280 279 279 280 281 281
Wind_Speed
9 10 18 17 15 19 17 16 18 16 19 20 16 26 19 15 20 17 15 11 17 12 12 25 30 36 35 33 20 38 38 37 36 35 33 34 33 34 32 30 26 29 28 27
14 22 16 17 16 18 19 20 22 24 21 16 15 18 15 22 20 21 15 11 9 7 6 3 2 9 15 22 22 33 38 40 39 34 33 30 34 32 30 28 27 27 28 26
18 22 18 20 19 20 20 21 21 20 21 19 12 18 18 13 18 8 10 7 8 10 9 7 6 4 8 16 23 28 36 38 35 32 29 24 26 25 27 28 28 30 28 26
14 19 22 24 20 19 19 18 22 22 18 7 4 6 14 15 17 8 8 6 4 8 9 9 11 12 17 14 16 9 41 41 41 40 36 35 30 21 25 28 32 29 26 27
14 17 22 21 14 17 19 20 19 9 11 4 5 7 7 8 10 16 18 11 10 13 14 13 13 17 23 28 29 28 9 33 38 44 42 39 30 31 27 26 30 30 32 24
19 18 15 15 15 13 20 11 5 5 2 6 13 6 6 4 7 9 18 17 16 15 15 15 18 25 27 30 31 29 28 11 33 41 42 39 35 30 26 30 30 32 31 33
10 17 16 8 6 19 12 8 3 1 2 5 6 5 10 10 16 19 19 17 16 16 16 17 19 17 27 30 31 30 27 29 18 42 41 40 38 36 35 35 29 28 31 32
4 5 11 8 12 10 6 9 5 5 4 2 4 8 10 8 24 19 18 19 19 19 17 18 19 20 26 30 31 32 33 31 29 33 41 37 35 33 34 34 32 33 31 28
2 6 6 10 13 7 6 9 7 3 1 2 5 3 3 8 20 20 18 21 19 18 17 18 17 20 23 26 29 31 34 33 30 24 40 35 35 34 31 35 35 35 33 32
3 4 13 17 6 8 7 6 5 3 2 4 6 6 2 11 15 19 22 19 20 18 16 13 12 20 24 26 28 30 30 32 30 23 37 37 38 39 35 32 35 34 33 32
5 5 3 3 3 2 5 4 5 2 2 2 2 3 7 7 12 17 19 21 17 15 14 15 16 25 25 27 28 31 34 35 32 8 31 36 34 36 33 29 36 33 32 32
3 2 1 3 8 3 4 2 6 2 3 2 2 4 14 16 19 19 20 17 16 16 17 17 18 25 27 26 28 30 31 34 33 23 6 27 31 30 32 28 29 29 31 31
3 1 2 2 2 5 4 5 7 3 3 3 1 4 10 16 18 17 17 17 17 18 17 16 17 17 25 26 26 30 33 33 33 22 14 6 14 26 26 29 26 28 30 27
6 4 6 3 3 4 1 12 10 5 1 4 6 10 14 17 18 18 18 16 16 16 17 16 15 16 24 27 27 28 31 33 34 26 17 14 9 5 25 28 29 28 25 24
5 6 8 13 10 14 10 15 9 9 7 7 8 17 12 14 14 14 13 13 15 16 15 14 15 15 24 28 28 28 30 32 31 27 29 25 17 4 19 25 28 26 23 19
5 4 8 13 16 20 15 22 19 19 15 10 13 10 9 12 12 15 15 16 15 14 14 15 15 18 22 26 28 26 30 34 32 31 29 29 27 22 9 25 28 27 24 22
4 2 1 4 11 10 13 19 21 22 20 12 10 6 7 13 15 15 14 14 13 12 12 13 14 18 23 26 25 27 25 34 32 30 29 31 34 32 30 21 18 17 20 23
0 5 2 2 6 5 7 15 21 24 19 18 15 10 11 14 13 13 12 12 12 11 9 10 15 22 24 26 27 24 30 27 31 30 30 32 34 33 33 31 28 18 18 17
5 2 2 3 3 5 11 14 9 5 12 18 15 13 8 8 5 13 14 11 10 10 11 12 18 19 23 27 27 26 28 29 30 31 29 29 36 34 32 33 33 28 27 26
8 9 3 1 4 4 6 19 14 5 7 14 14 14 15 6 5 4 9 9 11 14 19 15 19 21 25 27 24 25 27 28 28 29 25 31 36 33 30 29 33 36 28 37
5 5 7 5 4 3 14 19 13 3 3 7 10 11 12 7 4 2 4 4 7 12 15 16 20 22 24 26 25 23 23 25 25 26 28 30 31 29 25 27 33 31 26 37
5 5 4 4 4 4 20 7 6 4 6 8 8 9 9 9 6 3 3 5 13 16 19 20 20 22 25 27 26 25 23 19 22 27 28 30 29 29 26 26 24 25 24 24
4 3 3 5 4 4 8 10 10 8 6 6 7 7 7 6 6 8 7 9 14 17 19 20 20 21 24 27 27 24 26 19 17 23 28 29 29 28 27 27 26 25 23 18
3 4 4 3 5 8 8 8 9 7 5 6 8 10 8 9 10 10 9 10 14 18 19 20 19 20 21 23 26 26 27 24 20 19 19 25 27 28 27 27 28 25 23 20
4 4 3 5 8 9 7 7 6 8 8 10 10 11 10 10 11 10 10 12 15 16 18 20 20 19 20 21 24 27 26 23 21 20 20 14 19 20 23 29 26 25 28 21
4 3 1 2 5 5 5 5 6 6 7 9 9 10 15 14 11 15 13 16 16 16 18 18 19 19 19 21 24 28 26 23 22 19 19 20 14 15 17 19 23 26 25 24
Wind_Direction
261 238 237 235 230 246 262 272 261 254 243 251 245 244 238 223 225 239 231 243 240 217 218 216 222 229 230 240 230 186 181 183 178 177 180 182 190 198 200 201 199 200 201 201
268 252 249 243 239 240 251 259 270 283 282 262 266 296 292 244 223 227 226 226 218 190 189 208 181 207 216 228 239 187 185 183 184 183 186 186 188 190 198 198 197 198 196 200
247 259 244 240 231 239 247 235 253 255 278 288 22 271 245 265 240 204 206 199 220 199 202 208 252 250 285 261 246 187 183 183 182 185 181 179 184 193 185 187 195 199 199 203
249 259 254 261 226 225 247 249 243 254 257 268 225 300 298 238 250 270 248 209 124 77 68 51 40 24 22 6 13 208 179 180 185 188 181 181 178 179 201 201 195 191 198 204
264 256 256 262 280 221 241 246 257 258 54 290 249 269 258 281 265 240 227 107 81 69 67 51 40 30 20 11 5 4 323 189 183 186 185 185 183 195 197 204 215 215 208 202
259 267 260 263 270 271 245 220 62 64 31 248 227 201 287 274 234 98 85 83 74 61 49 37 30 22 13 5 358 353 347 319 196 190 191 186 185 189 184 190 196 199 206 207
284 266 256 240 297 287 248 127 58 87 192 230 199 223 245 321 83 94 92 80 68 57 46 30 23 14 4 359 349 342 335 322 304 196 197 195 188 189 191 189 192 191 199 204
249 295 222 218 211 245 214 134 159 181 198 184 240 218 232 201 85 75 78 73 61 51 40 31 20 11 359 348 340 334 326 313 300 214 201 197 190 185 191 191 193 194 199 203
1 238 332 268 279 236 193 159 155 87 191 319 204 27 318 18 118 93 73 64 52 46 38 29 16 1 355 344 337 329 322 312 298 231 202 193 190 191 184 190 197 197 206 205
68 1 286 273 303 21 145 143 146 76 235 239 193 125 215 30 38 77 63 57 46 37 28 26 11 4 355 347 340 334 335 329 315 238 195 191 193 198 192 192 192 198 203 203
109 148 250 81 242 99 31 114 77 146 232 351 130 91 13 52 64 64 72 57 45 31 23 16 9 7 356 353 350 346 349 346 1 206 183 187 190 196 187 195 192 195 199 198
66 276 189 142 2 64 63 98 179 196 141 195 299 65 37 63 47 49 49 46 41 33 25 15 6 4 0 357 355 355 351 354 356 359 96 177 191 195 186 195 181 191 188 189
242 268 18 32 96 134 144 229 235 139 352 4 130 83 18 45 50 47 52 43 35 28 20 12 7 3 3 358 360 4 358 355 357 4 352 62 167 194 191 174 169 169 170 175
175 67 12 329 346 289 241 174 198 110 103 44 70 113 46 41 40 33 35 34 34 29 21 15 6 359 356 1 4 11 4 5 5 10 21 8 333 190 174 167 166 165 166 169
61 33 347 310 233 82 37 63 61 118 89 63 74 73 55 48 49 44 42 34 32 27 18 9 4 359 2 2 3 10 18 11 10 11 25 14 18 273 171 166 167 163 164 172
32 37 342 54 96 75 75 69 59 59 77 91 90 82 64 67 59 45 34 32 25 20 13 7 1 0 360 360 1 2 23 19 16 19 22 22 33 39 61 163 163 160 165 172
53 0 46 353 315 103 66 70 69 62 51 54 54 62 91 64 57 43 31 29 20 12 14 8 4 1 0 356 356 5 7 37 22 21 22 30 33 32 25 61 125 142 160 168
55 317 113 344 337 51 90 50 79 70 42 38 50 93 99 103 83 56 36 25 13 356 1 11 10 6 2 5 5 8 23 23 34 21 23 34 38 37 34 41 40 78 105 120
187 250 339 117 4 133 41 14 350 41 48 21 42 38 126 150 104 45 27 18 7 355 1 37 29 17 11 12 12 15 19 27 29 25 17 33 45 39 42 47 46 46 72 65
11 24 99 284 67 47 8 329 314 265 52 12 38 36 27 126 53 19 8 8 9 1 10 51 38 25 22 13 13 24 25 21 22 24 16 38 55 51 43 52 62 66 54 73
360 1 36 30 96 74 354 330 317 86 30 23 36 54 54 67 82 50 354 334 7 357 38 43 46 34 24 17 19 21 31 29 22 35 43 48 53 57 58 52 69 69 64 71
35 347 20 359 55 24 354 21 57 85 56 38 39 63 81 92 91 94 277 9 41 27 28 39 47 37 27 21 20 18 18 28 34 39 46 52 56 51 56 62 53 69 64 64
40 38 76 27 78 67 33 58 59 65 64 46 46 58 78 94 85 66 43 41 37 38 33 39 44 39 29 21 20 17 9 20 28 44 46 50 55 58 55 54 56 52 57 53
36 39 86 139 86 76 76 67 55 51 54 84 56 33 50 64 77 61 48 47 40 37 40 38 41 39 31 21 17 16 14 19 31 38 52 52 55 54 53 52 51 53 50 49
1 46 80 89 127 109 73 62 68 53 30 42 77 57 43 60 71 66 51 48 44 40 42 40 37 36 29 18 15 17 16 21 28 35 39 63 66 66 63 61 57 57 62 68
7 357 356 116 98 94 99 72 64 55 62 58 48 69 54 58 74 71 54 46 43 45 43 39 34 32 26 18 19 23 22 29 31 33 35 40 52 65 71 72 66 64 70 68